www.pogodaiklimat.ru

Погода и климат >> Архив погоды >> Украина >> Харьков


АРХИВ ПОГОДЫ в Харькове

Время (UTC), дата Ветер
(напр.,м/с)
 
Видим.   Явления Облачность Т
(С)
Тd
(С)
f
(%)
Тe
(С)
Тes
(С)
Комфортность P
(гПа)
Po
(гПа)
Тmin
(С)
Tmax
(С)
R
(мм)
R24
(мм)
S
(см)
18 13.08 В 4 10 км 3/0
[Ac trans]
+26.3 +10.0 36 +27 +27 жарко 1011.5 993.9 +35.3
21 13.08 В 4 10 км ясно +25.3 +12.8 46 +27 +27 жарко 1012.3 994.6
00 14.08 В 3 10 км ясно +21.9 +12.4 55 +24 +24 комфорт 1013.0 995.1
03 14.08 штиль 0 10 км 3/0
[Ac trans]
+22.0 +12.8 56 +25 +25 комфорт 1012.8 994.9
06 14.08 СВ 2 10 км ясно +28.1 +13.1 40 +30 +36 жарко 1013.2 995.7 +21.4
09 14.08 В 4 10 км 4/3 1000 м
[Cu hum Ci fib]
+32.6 +10.8 26 +32 +39 жарко 1013.1 995.8
12 14.08 В 4 10 км 5/5 1000 м
[Cu hum]
+33.7 +9.2 22 +32 +36 жарко 1012.4 995.2
15 14.08 СВ 4 10 км 4/3 1000 м
[Cu hum Ci fib]
+33.1 +7.2 20 +31 +32 жарко 1012.0 994.8
18 14.08 С 4 10 км 4/0
[Ac trans]
+28.4 +10.5 33 +29 +29 жарко 1013.8 996.3 +34.6
21 14.08 В 2 10 км 3/0
[Ac trans]
+24.3 +11.4 44 +26 +26 жарко 1015.1 997.3
00 15.08 С 4 10 км 3/0
[Ac trans]
+22.4 +13.2 56 +25 +25 комфорт 1015.9 998.0
03 15.08 СВ 2 10 км 4/0
[Ac trans Ci]
+20.4 +12.4 60 +23 +23 комфорт 1016.4 998.4
06 15.08 СВ 2 10 км 4/0
[Ci]
+26.8 +11.0 37 +28 +34 жарко 1017.2 999.5 +19.6
09 15.08 В 5 10 км 4/3 1000 м
[Cu hum Ci fib]
+31.7 +9.2 25 +31 +36 жарко 1016.9 999.5
12 15.08 СВ 6 10 км 6/4 1000 м
[Cu hum Ci fib]
+32.2 +8.1 22 +31 +33 жарко 1016.6 999.2
15 15.08 СВ 5 10 км 4/3 1000 м
[Cu hum Ac trans]
+31.3 +8.8 25 +30 +31 жарко 1016.4 999.0
18 15.08 СВ 5 10 км 3/0
[Ac trans]
+26.8 +13.0 42 +28 +28 жарко 1018.4 1000.7 +33.0
21 15.08 СВ 5 10 км ясно +23.8 +13.3 52 +26 +26 жарко 1019.2 1001.3
00 16.08 СВ 5 10 км ясно +21.5 +15.7 70 +25 +25 комфорт 1019.4 1001.4
03 16.08 С 3 10 км 3/0
[Ac trans]
+20.0 +16.7 81 +23 +23 комфорт 1020.1 1002.0
06 16.08 СВ 4 10 км 3/0
[Ac und]
+23.7 +16.3 63 +27 +30 жарко 1020.6 1002.7 +20.0
09 16.08 В 6 10 км 3/3 1000 м
[Cu hum]
+28.4 +14.9 44 +31 +35 душно 1019.7 1002.1
12 16.08 СВ 6 10 км 6/6 1000 м
[Cu med, cong]
+29.4 +13.5 38 +31 +33 жарко 1018.6 1001.1
15 16.08 СВ 4 10 км 4/4 1000 м
[Cu med, cong]
+29.3 +12.5 36 +30 +31 жарко 1018.1 1000.6
18 16.08 С 4 10 км {ливн. осадки} 3/0
[Ac trans]
+25.8 +13.6 47 +28 +28 жарко 1019.0 1001.3 +31.6 0.0
21 16.08 СВ 4 10 км ясно +23.4 +12.4 50 +26 +26 жарко 1019.5 1001.6
00 17.08 СВ 3 10 км 4/0
[Ci fib]
+20.4 +10.5 53 +22 +22 комфорт 1019.7 1001.6
03 17.08 СВ 3 10 км 3/0
[Ci sp]
+19.8 +9.9 53 +21 +21 комфорт 1020.1 1002.0
06 17.08 В 4 10 км ясно +24.7 +10.3 40 +26 +30 жарко 1020.5 1002.6 +19.5
09 17.08 В 6 10 км ясно +30.3 +7.9 25 +29 +35 жарко 1019.6 1002.1
12 17.08 В 4 10 км 5/5 1000 м
[Cu hum]
+31.7 +3.9 17 +29 +33 жарко 1018.2 1000.8
15 17.08 СВ 4 10 км 5/3 1000 м
[Sc diur, vesp Ac trans]
+30.7 +6.5 22 +29 +30 жарко 1017.8 1000.3
18 17.08 СВ 4 10 км 3/0
[Ac trans]
+25.1 +7.0 31 +25 +25 комфорт 1018.8 1001.0 +32.3
21 17.08 СВ 5 10 км ясно +23.2 +8.9 40 +25 +25 комфорт 1018.8 1000.9
00 18.08 СВ 4 10 км ясно +21.8 +9.8 46 +23 +23 комфорт 1018.6 1000.6
03 18.08 СВ 3 10 км 6/0
[Ac trans]
+19.6 +10.4 55 +21 +21 комфорт 1019.2 1001.1
06 18.08 В 4 10 км 3/0
[Ac trans]
+25.4 +10.8 40 +26 +30 жарко 1020.0 1002.2 +19.6
09 18.08 ЮВ 4 10 км ясно +31.5 +7.1 22 +30 +39 жарко 1019.8 1002.3
12 18.08 В 7 10 км 6/6 1000 м
[Cu hum]
+32.1 +2.9 16 +29 +31 жарко 1019.1 1001.7
15 18.08 В 6 10 км 6/3 1000 м
[Sc diur, vesp Ac trans]
+32.0 +5.5 19 +30 +30 жарко 1018.6 1001.2
18 18.08 СВ 3 10 км 3/0
[Ac trans]
+25.2 +5.7 29 +25 +25 комфорт 1019.9 1002.1 +34.5
21 18.08 СВ 1 10 км ясно +22.8 +7.2 37 +24 +24 комфорт 1020.2 1002.2
00 19.08 СВ 1 10 км ясно +20.4 +7.1 42 +23 +23 комфорт 1020.6 1002.5
03 19.08 СВ 1 10 км ясно +18.8 +8.9 53 +20 +21 тепло 1021.4 1003.2
06 19.08 В 5 10 км ясно +26.4 +9.3 34 +27 +30 жарко 1021.9 1004.1 +18.5
09 19.08 В 6 10 км ясно +31.2 +6.8 22 +30 +35 жарко 1021.3 1003.8
12 19.08 В 6 10 км 6/6 1000 м
[Cu med, cong]
+30.9 +7.8 24 +30 +31 жарко 1020.4 1002.9
15 19.08 СВ 4 10 км 4/3 1000 м
[Cu med, cong Ac trans]
+30.6 +6.0 21 +29 +30 жарко 1019.9 1002.4
18 19.08 СВ 4 10 км ясно +25.4 +7.5 32 +25 +25 комфорт 1021.1 1003.3 +32.8
21 19.08 СВ 3 10 км ясно +22.4 +8.2 40 +24 +24 комфорт 1021.5 1003.5
00 20.08 штиль 0 10 км ясно +20.0 +10.0 53 +21 +21 комфорт 1021.7 1003.5
03 20.08 СВ 2 10 км ясно +18.5 +8.2 51 +19 +19 тепло 1021.6 1003.3
06 20.08 СВ 6 10 км ясно +25.8 +6.7 30 +26 +28 жарко 1021.0 1003.2 +17.9
09 20.08 СВ 4 10 км ясно +30.8 +7.3 23 +30 +39 жарко 1019.6 1002.1
12 20.08 В 5 10 км 3/3 1000 м
[Cu hum]
+32.7 +6.9 20 +31 +35 жарко 1018.2 1000.8

 

Местоположение метеостанции Харьков (Харьковская область, Украина): широта 49.97 долгота 36.13 высота над уровнем моря 155 м.

В архиве по умолчанию представлена погода в Харькове за последнюю неделю. Архивные данные за месяц целиком и за предыдущие месяцы, начиная с января 2011 года, Вы можете получить, выбрав интересующий диапазон дат из раскрывающегося списка и нажав кнопку "Ввод!".

Внимание! Время в таблицах - всемирное. Для получения местного времени необходимо прибавить поправку, которая в Харькове равна 2 ч.

Смотрите также архив погоды в соседних городах и на ближайших метеорологических станциях:

Погода в Золочеве (Львовская область, Украина) (39 км)
Погода в Боходухове (Харьковская область, Украина) (50 км)
Погода в Слобожанском (Донецкая область, Украина) (50 км)
Погода в Коломаке (Харьковская область, Украина) (66 км)
Погода в Белгороде (Белгородская область, Россия) (80 км)
Погода в Краснограде (Харьковская область, Украина) (82 км)
Погода в Великом Бурлуке (Харьковская область, Украина) (90 км)
Погода в Готне (Белгородская область, Россия) (96 км)
Погода в Купянске (Харьковская область, Украина) (119 км)
Погода в Лозовой (Харьковская область, Украина) (120 км)

Пояснения к столбцам:

Ветер - указаны скорость ветра в м/с - средняя за 10 мин, порывы в срок и между сроками (в фигурных скобках) и направление, откуда дует ветер: С - северный, СВ - северо-восточный, В - восточный, ЮВ - юго-восточный, Ю - южный, ЮЗ - юго-западный, З - западный, СЗ - северо-западный.
Видимость - горизонтальная дальность видимости в метрах или километрах. При видимости от 1 до 10 км при отсутствии осадков обычно наблюдается дымка, при ухудшении видимости до 1 км и менее - туман. В сухую погоду видимость может ухудшаться дымом, пылью или мглою.
Явления - указаны атмосферные явления, наблюдавшиеся в срок или в последний час перед сроком; фигурными скобками обозначены явления, наблюдавшиеся между сроками (за 1-3 часа до срока); квадратными скобками обозначены град или гололедные отложения с указанием их диаметра в мм.
Облачность - указаны через наклонную черту общая и нижняя облачность в баллах и высота нижней границы облаков в метрах; квадратными скобками обозначены формы облаков: Ci - перистые, Cs - перисто-слоистые, Cc - перисто-кучевые, Ac - высококучевые, As - высокослоистые, Sc - слоисто-кучевые, Ns - слоисто-дождевые, Cu - кучевые, Cb - кучево-дождевые. Подробнее классификацию облаков см. в Атласе облаков (PDF).
T - Температура воздуха - температура, измеренная на высоте 2 м над землей.
Td - Температура точки росы - температура, при понижении до которой содержащийся в воздухе водяной пар достигнет насыщения.
f - Относительная влажность воздуха - влажноcть воздуха, измеренная на высоте 2 м над землей.
Te - Эффективная температура - температура, которую ощущает одетый по сезону человек в тени. Характеристика душности погоды. При расчете учитывается влияние влажности воздуха и скорости ветра на теплоощущения человека.
Tes - Эффективная температура на солнце - температура, которую ощущает человек, с поправкой на солнечный нагрев. Характеристика знойности погоды. Зависит от высоты солнца над горизонтом, облачности и скорости ветра. Ночью, в пасмурную погоду, а также при ветре 12 м/с и более поправка равна нулю.
P - Атмосферное давление - приведенное к уровню моря атмосферное давление.
Po - Атмосферное давление - измеренное на уровне метеостанции атмосферное давление.
Tmin - Минимальная температура - минимум температуры воздуха на высоте 2 м над землей.
Tmax - Максимальная температура - максимум температуры воздуха на высоте 2 м над землей.
R - Количество осадков - Количество выпавших осадков за период времени, мм. При наведении курсора мыши на число - период времени, за который выпало указанное количество осадков.
R24 - Количество осадков - Количество выпавших осадков за 24 часа, мм.
S - Снежный покров - Высота снежного покрова, см. При наведении курсора мыши на число - состояние снежного покрова и степень покрытия местности в баллах.